User: anonymous   Login
Location: Dompnac
(44.5644°N, 4.1026°E)
Time: 05:36:02
(UTC+00:00)
Language:

CSL-04 Rocket - Orbit

View from above orbital plane
View from above orbital plane
View from above satellite
View from above satellite

Ground track
Ground track

The orbit data is extracted from the following two-line orbital elements,

1 25732U 99025C   20333.58274499 +.00000010 +00000-0 +26935-4 0  9993
2 25732 098.9284 003.3253 0038346 102.5375 050.4616 14.17684332115079
Epoch (UTC): 28 November 2020 13:59:09
Eccentricity: 0.0038346
inclination: 98.9284°
perigee height: 805 km
apogee height: 861 km
right ascension of ascending node: 3.3253°
argument of perigee: 102.5375°
revolutions per day: 14.17684332
mean anomaly at epoch: 50.4616°
orbit number at epoch: 11507

The dashed part of the orbit path shows where the satellite is in the earth's shadow,  

DLR